Location: Cluny
(50.9333°N, 112.8167°W)
Time: 08:01:38
(UTC-07:00)

Amateur Radio Satellites - All Passes

Search period start: 19 January 2017 07:31
Search period end: 20 January 2017 07:31
Location: Cluny, 50.9333°N, 112.8167°W

Satellite Date Start Highest point End Downlink Frequencies (MHz)
Time Altitude Azimuth
CUBEBUG 2 19 Jan 07:34:14 07:36:11 13° 87° (E) 07:38:10 437.445
GONETS M04 19 Jan 07:35:44 07:44:38 90° 263° (W) 07:53:31
AAUSAT CUBESAT 2 19 Jan 07:42:49 07:44:36 12° 86° (E) 07:46:23 437.432
PCSat 19 Jan 07:50:03 07:54:10 21° 25° (NNE) 07:58:17 145.827
HO-68 19 Jan 07:53:25 08:00:17 45° 98° (E) 08:07:05 435.675
SO-50 19 Jan 08:01:56 08:05:20 20° 114° (ESE) 08:08:41 436.795
DOVE 4 19 Jan 08:04:25 08:08:04 28° 296° (WNW) 08:11:37 437.250
UWE-3 19 Jan 08:04:56 08:07:47 17° 90° (E) 08:10:41 435.000/436.395/437.385
CINEMA 3 19 Jan 08:05:18 08:09:30 86° 104° (ESE) 08:13:44 145.822/145.860
FUNcube-1 19 Jan 08:06:45 08:07:05 10° 85° (E) 08:07:25 145.935
CUTE-I 19 Jan 08:10:49 08:15:39 36° 297° (WNW) 08:20:30 437.470
CUTE 1.7 + AOD 2 19 Jan 08:12:47 08:17:04 62° 101° (E) 08:21:20 437.475
LilacSat-2 19 Jan 08:17:10 08:19:38 16° 300° (WNW) 08:22:06 437.200
RS-15 19 Jan 08:18:55 08:31:25 81° 46° (NE) 08:43:33 29.354- 29.394
PRISM 19 Jan 08:19:57 08:23:55 44° 68° (ENE) 08:27:54 437.425
UNISAT 6 19 Jan 08:20:04 08:22:49 17° 58° (ENE) 08:25:34 437.425
HORYU 2 19 Jan 08:25:32 08:26:04 10° 309° (NW) 08:26:36 437.375
ZACube-1 19 Jan 08:26:46 08:29:44 18° 90° (E) 08:32:44 437.345
STRAND 1 19 Jan 08:32:12 08:35:10 15° 273° (W) 08:38:09 437.568
TIGRISAT 19 Jan 08:33:22 08:36:30 20° 60° (ENE) 08:39:39 435.000
AO-7 19 Jan 08:37:57 08:40:50 12° 340° (NNW) 08:43:43 29.400- 29.500
CANX-2 19 Jan 08:41:47 08:46:04 61° 288° (WNW) 08:50:18 2200.000
NOAA 18 19 Jan 08:46:42 08:51:37 35° 299° (WNW) 08:56:30 137.9125
ANTELSAT 19 Jan 08:47:38 08:51:16 28° 64° (ENE) 08:54:55 437.575/2403.000
Cubesat XI-IV 19 Jan 08:54:19 08:58:02 20° 306° (NW) 09:01:45 437.490
O/OREOS (USA 219) 19 Jan 08:55:01 08:58:38 23° 314° (NW) 09:02:16 437.305
SEEDS 19 Jan 08:55:44 09:00:00 73° 286° (WNW) 09:04:14 437.485
COMPASS 1 19 Jan 09:03:44 09:07:59 86° 283° (WNW) 09:12:12 437.405
Oscar 11 19 Jan 09:05:07 09:09:06 33° 96° (E) 09:13:04 145.826/435.025
NOAA 15 19 Jan 09:08:43 09:11:42 15° 309° (NW) 09:14:41 137.62
CUBEBUG 2 19 Jan 09:09:05 09:13:23 83° 284° (WNW) 09:17:47 437.445
DELFI C3 19 Jan 09:11:27 09:13:40 14° 88° (E) 09:15:51 145.870
AAUSAT CUBESAT 2 19 Jan 09:16:26 09:20:40 82° 284° (WNW) 09:24:50 437.432
Cosmos 2499 19 Jan 09:22:12 09:26:35 17° 285° (WNW) 09:30:54 435.465 / 435.565
PCSat 19 Jan 09:33:14 09:38:39 62° 48° (NE) 09:44:01 145.827
JAS-2 19 Jan 09:33:25 09:38:17 34° 60° (ENE) 09:43:38 435.910
GONETS M04 19 Jan 09:33:44 09:40:19 24° 284° (WNW) 09:46:54
FUNcube-1 19 Jan 09:39:42 09:44:03 77° 102° (ESE) 09:48:29 145.935
UWE-3 19 Jan 09:40:23 09:44:39 63° 287° (WNW) 09:49:01 435.000/436.395/437.385
SO-50 19 Jan 09:40:37 09:45:19 76° 313° (NW) 09:49:58 436.795
HO-68 19 Jan 09:41:16 09:48:05 48° 299° (WNW) 09:54:52 435.675
CINEMA 3 19 Jan 09:44:01 09:46:05 14° 303° (WNW) 09:48:09 145.822/145.860
CUTE 1.7 + AOD 2 19 Jan 09:49:29 09:52:30 19° 300° (WNW) 09:55:31 437.475
UNISAT 6 19 Jan 09:54:49 09:59:04 69° 257° (WSW) 10:03:21 437.425
PRISM 19 Jan 09:56:05 09:59:24 22° 267° (W) 10:02:44 437.425
ZACube-1 19 Jan 10:02:07 10:06:24 61° 288° (WNW) 10:10:46 437.345
QB50P1 19 Jan 10:03:30 10:06:36 20° 61° (ENE) 10:09:42 145.935-145.965
POLYITAN 1 19 Jan 10:07:05 10:10:18 22° 61° (ENE) 10:13:32 437.675
QB50P2 19 Jan 10:08:07 10:11:28 23° 62° (ENE) 10:14:49 145.880/145.840
TIGRISAT 19 Jan 10:08:43 10:12:52 54° 260° (W) 10:17:04 435.000
ANTELSAT 19 Jan 10:23:56 10:27:53 37° 263° (W) 10:31:52 437.575/2403.000
HUMSAT D 19 Jan 10:24:26 10:28:33 44° 98° (E) 10:32:40 437.325/437.525
POPSAT HIP 1 19 Jan 10:29:28 10:33:13 33° 66° (ENE) 10:36:59 437.405
RS-15 19 Jan 10:32:04 10:42:59 40° 252° (WSW) 10:53:36 29.354- 29.394
SEEDS 19 Jan 10:33:33 10:34:56 11° 306° (NW) 10:36:19 437.485
COMPASS 1 19 Jan 10:40:55 10:42:52 13° 304° (NW) 10:44:49 437.405
Oscar 11 19 Jan 10:41:19 10:45:12 32° 295° (WNW) 10:49:05 145.826/435.025
DUCHIFAT 1 19 Jan 10:41:46 10:45:37 37° 67° (ENE) 10:49:29 145.980
DELFI C3 19 Jan 10:44:55 10:48:55 66° 288° (WNW) 10:52:53 145.870
NANOSAT C BR1 19 Jan 10:46:28 10:50:27 45° 69° (ENE) 10:54:28 145.865
CUBEBUG 2 19 Jan 10:47:27 10:49:22 13° 304° (NW) 10:51:19 437.445
AAUSAT CUBESAT 2 19 Jan 10:53:42 10:55:26 12° 305° (NW) 10:57:10 437.432
ESTCUBE 1 19 Jan 10:57:04 10:59:58 17° 89° (E) 11:02:51 437.505/2401.250
FUNcube-1 19 Jan 11:17:08 11:19:47 16° 302° (WNW) 11:22:28 145.935
PCSat 19 Jan 11:17:08 11:21:42 28° 249° (WSW) 11:26:15 145.827
JAS-2 19 Jan 11:18:06 11:23:15 46° 263° (W) 11:28:58 435.910
Oscar 19 19 Jan 11:18:22 11:21:43 18° 53° (NE) 11:25:04 437.125/150
UWE-3 19 Jan 11:19:46 11:20:18 10° 307° (NW) 11:20:52 435.000/436.395/437.385
BUGSAT 1 19 Jan 11:21:33 11:25:17 37° 67° (ENE) 11:29:01 437.445
SO-50 19 Jan 11:22:46 11:26:30 23° 335° (NNW) 11:30:12 436.795
Gurwin Techsat 1B 19 Jan 11:24:13 11:26:19 12° 48° (NE) 11:28:25 435.225
HO-68 19 Jan 11:30:34 11:34:11 15° 322° (NW) 11:37:47 435.675
QB50P1 19 Jan 11:37:56 11:42:03 53° 260° (W) 11:46:11 145.935-145.965
BY70-1 19 Jan 11:41:00 11:44:26 80° 103° (ESE) 11:47:42 436.1900
ZACube-1 19 Jan 11:41:40 11:41:51 10° 307° (NW) 11:42:03 437.345
POLYITAN 1 19 Jan 11:41:46 11:45:50 48° 260° (W) 11:49:55 437.675
QB50P2 19 Jan 11:43:01 11:47:03 44° 261° (W) 11:51:07 145.880/145.840
50 SAT 19 Jan 11:43:35 11:44:29 11° 88° (E) 11:45:24 437.505
Cosmos 2491 19 Jan 11:50:29 11:57:38 27° 56° (NE) 12:04:44 435.465 / 435.565
SPROUT 19 Jan 11:51:47 11:54:26 16° 89° (E) 11:57:04 437.525
DX 1 19 Jan 11:51:52 11:52:30 10° 86° (E) 11:53:08 434.975-435.025
CUSAT 1 19 Jan 12:00:25 12:04:51 16° 45° (NE) 12:09:18 437.405
HUMSAT D 19 Jan 12:00:30 12:03:57 24° 297° (WNW) 12:07:25 437.325/437.525
CUBEBUG 1 19 Jan 12:02:34 12:06:40 39° 98° (E) 12:10:43 437.445
POPSAT HIP 1 19 Jan 12:05:19 12:09:01 30° 264° (W) 12:12:45 437.405
AO-7 19 Jan 12:14:02 12:19:25 19° 35° (NE) 12:24:49 29.400- 29.500
AISAT 19 Jan 12:15:49 12:19:53 35° 97° (E) 12:23:54 437.250
DUCHIFAT 1 19 Jan 12:17:53 12:21:24 26° 266° (W) 12:24:56 145.980
NANOSAT C BR1 19 Jan 12:23:08 12:26:24 22° 268° (W) 12:29:41 145.865
ESTCUBE 1 19 Jan 12:32:44 12:37:17 70° 287° (WNW) 12:41:47 437.505/2401.250
DANDE 19 Jan 12:39:27 12:41:36 11° 44° (NE) 12:43:49 436.750
VELOX 1 19 Jan 12:49:06 12:53:31 70° 103° (ESE) 12:57:54 145.980
Oscar 19 19 Jan 12:55:07 13:00:20 86° 73° (ENE) 13:05:35 437.125/150
BUGSAT 1 19 Jan 12:57:23 13:00:46 25° 266° (W) 13:04:09 437.445
Gurwin Techsat 1B 19 Jan 13:00:01 13:05:13 57° 68° (ENE) 13:10:26 435.225
SO-50 19 Jan 13:05:53 13:08:33 15° 359° (N) 13:11:11 436.795
BY70-1 19 Jan 13:13:17 13:14:12 11° 302° (WNW) 13:15:06 436.1900
50 SAT 19 Jan 13:14:36 13:18:11 72° 286° (WNW) 13:21:43 437.505
TISAT 1 19 Jan 13:23:26 13:26:39 21° 92° (E) 13:29:52 437.305
DX 1 19 Jan 13:25:04 13:29:27 80° 104° (ESE) 13:33:47 434.975-435.025
UKube-1 19 Jan 13:26:29 13:30:47 62° 102° (ESE) 13:35:03 .
SPROUT 19 Jan 13:26:35 13:30:48 65° 288° (WNW) 13:35:01 437.525
ITAMSAT 1 19 Jan 13:36:24 13:40:51 30° 61° (ENE) 13:45:20 435.822/435.867
CUBEBUG 1 19 Jan 13:39:08 13:42:49 27° 297° (WNW) 13:46:29 437.445
CUSAT 1 19 Jan 13:41:08 13:48:47 49° 68° (ENE) 13:56:16 437.405
AO-85 19 Jan 13:45:52 13:48:32 15° 113° (ESE) 13:51:07 145.980
Cosmos 2491 19 Jan 13:46:58 13:55:48 89° 90° (E) 14:04:38 435.465 / 435.565
AISAT 19 Jan 13:52:25 13:56:17 31° 296° (WNW) 14:00:08 437.250
AIST 1 19 Jan 13:57:42 14:01:36 33° 91° (E) 14:05:31
YUBILEINY 19 Jan 13:59:59 14:08:03 42° 85° (E) 14:16:09 435.215
AO-7 19 Jan 14:02:26 14:10:28 54° 59° (ENE) 14:18:33 29.400- 29.500
Cosmos 2504 19 Jan 14:02:33 14:09:05 25° 79° (E) 14:15:19 435.465 / 435.565
O/OREOS (USA 219) 19 Jan 14:03:01 14:03:49 10° 31° (NNE) 14:04:37 437.305
ESTCUBE 1 19 Jan 14:11:30 14:13:16 12° 307° (NW) 14:15:02 437.505/2401.250
DANDE 19 Jan 14:19:33 14:26:20 39° 66° (ENE) 14:33:58 436.750
VELOX 1 19 Jan 14:26:32 14:29:30 18° 302° (WNW) 14:32:27 145.980
ITUPSAT 1 19 Jan 14:32:32 14:36:27 24° 93° (E) 14:40:21 437.325
Oscar 19 19 Jan 14:37:12 14:40:22 16° 273° (W) 14:43:32 437.125/150
Gurwin Techsat 1B 19 Jan 14:41:09 14:45:31 25° 268° (W) 14:49:55 435.225
SO-50 19 Jan 14:47:00 14:50:36 22° 24° (NNE) 14:54:10 436.795
TISAT 1 19 Jan 14:58:31 15:02:32 46° 291° (WNW) 15:06:32 437.305
DX 1 19 Jan 15:02:28 15:05:05 16° 304° (WNW) 15:07:42 434.975-435.025
UKube-1 19 Jan 15:03:22 15:06:25 19° 301° (WNW) 15:09:27 .
SPROUT 19 Jan 15:05:15 15:05:54 10° 307° (NW) 15:06:35 437.525
BRITE-PL 19 Jan 15:05:41 15:09:59 23° 58° (ENE) 15:14:13 437.365/2234.400
BEESAT 19 Jan 15:07:29 15:12:08 48° 100° (E) 15:16:46 436.000
SWISSCUBE 19 Jan 15:08:58 15:13:42 55° 101° (E) 15:18:25 437.505
MOZHAYETS 4 19 Jan 15:12:54 15:16:24 21° 90° (E) 15:19:53
ITAMSAT 1 19 Jan 15:15:09 15:20:08 48° 260° (W) 15:25:10 435.822/435.867
GOMX 1 19 Jan 15:17:24 15:19:42 13° 53° (NE) 15:21:58 467.674
CUSAT 1 19 Jan 15:23:15 15:30:48 49° 269° (W) 15:38:07 437.405
AO-85 19 Jan 15:23:50 15:28:27 90° 304° (NW) 15:32:44 145.980
AIST 1 19 Jan 15:35:21 15:39:12 30° 290° (WNW) 15:43:05
NOAA 15 19 Jan 15:38:00 15:39:37 11° 46° (NE) 15:41:14 137.62
O/OREOS (USA 219) 19 Jan 15:40:13 15:44:30 41° 54° (NE) 15:48:46 437.305
Cosmos 2491 19 Jan 15:44:58 15:51:31 24° 284° (WNW) 15:58:05 435.465 / 435.565
Cosmos 2504 19 Jan 15:52:55 16:01:36 86° 281° (W) 16:09:44 435.465 / 435.565
AO-7 19 Jan 15:55:28 16:03:25 46° 260° (W) 16:11:26 29.400- 29.500
YUBILEINY 19 Jan 15:56:01 16:04:39 56° 288° (WNW) 16:13:22 435.215
CUBESAT XI-V 19 Jan 15:58:15 15:58:47 10° 83° (E) 15:59:19 437.345
KKS-1 19 Jan 16:00:20 16:03:31 19° 91° (E) 16:06:40 437.445
DOVE 4 19 Jan 16:02:02 16:03:55 12° 54° (NE) 16:05:45 437.250
DANDE 19 Jan 16:02:07 16:09:25 63° 264° (W) 16:17:37 436.750
ITUPSAT 1 19 Jan 16:09:53 16:14:34 52° 291° (WNW) 16:19:13 437.325
HORYU 2 19 Jan 16:12:43 16:16:39 33° 64° (ENE) 16:20:37 437.375
AUBIESAT-1 19 Jan 16:14:18 16:16:24 15° 97° (E) 16:18:27 437.475
CUTE-I 19 Jan 16:19:29 16:23:21 21° 55° (NE) 16:27:14 437.470
SO-50 19 Jan 16:27:14 16:31:48 75° 46° (NE) 16:36:17 436.795
BRITE-PL 19 Jan 16:42:11 16:47:54 79° 257° (WSW) 16:53:32 437.365/2234.400
HO-68 19 Jan 16:43:22 16:47:38 17° 41° (NE) 16:51:55 435.675
BEESAT 19 Jan 16:45:41 16:49:42 27° 299° (WNW) 16:53:43 436.000
SWISSCUBE 19 Jan 16:47:20 16:51:12 25° 300° (WNW) 16:55:02 437.505
MOZHAYETS 4 19 Jan 16:49:21 16:53:56 58° 290° (WNW) 16:58:29
GOMX 1 19 Jan 16:51:37 16:56:56 63° 71° (ENE) 17:01:59 467.674
STARS 19 Jan 16:55:50 16:59:43 30° 96° (E) 17:03:34 437.465
NOAA 18 19 Jan 16:58:05 17:02:34 26° 57° (ENE) 17:07:03 137.9125
Cubesat XI-IV 19 Jan 17:00:58 17:05:53 40° 64° (ENE) 17:10:49 437.490
AO-85 19 Jan 17:05:51 17:09:23 23° 331° (NNW) 17:12:44 145.980
CUSAT 1 19 Jan 17:08:19 17:10:57 12° 289° (WNW) 17:13:35 437.405
M-CUBED/EXP-1 PRIME 19 Jan 17:10:12 17:13:41 84° 110° (ESE) 17:16:59 437.505
NOAA 15 19 Jan 17:13:08 17:18:15 51° 67° (ENE) 17:23:24 137.62
BEESAT 3 19 Jan 17:13:42 17:17:26 46° 124° (ESE) 17:21:15 437.485
O/OREOS (USA 219) 19 Jan 17:19:53 17:23:47 29° 254° (WSW) 17:27:40 437.305
LilacSat-2 19 Jan 17:28:21 17:32:04 59° 72° (ENE) 17:35:50 437.200
CUBESAT XI-V 19 Jan 17:32:19 17:37:03 72° 103° (ESE) 17:41:43 437.345
DOVE 4 19 Jan 17:35:56 17:40:52 67° 73° (ENE) 17:45:31 437.250
KKS-1 19 Jan 17:36:05 17:40:27 58° 290° (WNW) 17:44:46 437.445
CINEMA 3 19 Jan 17:36:08 17:39:14 19° 61° (ENE) 17:42:16 145.822/145.860
CUTE 1.7 + AOD 2 19 Jan 17:37:10 17:39:00 13° 55° (NE) 17:40:49 437.475
DANDE 19 Jan 17:46:46 17:51:02 16° 282° (WNW) 17:55:33 436.750
AUBIESAT-1 19 Jan 17:47:50 17:51:09 44° 296° (WNW) 17:54:19 437.475
HORYU 2 19 Jan 17:49:11 17:53:11 33° 263° (W) 17:57:14 437.375
Cosmos 2504 19 Jan 17:49:33 17:56:11 25° 303° (WNW) 18:02:32 435.465 / 435.565
ITUPSAT 1 19 Jan 17:50:56 17:51:22 10° 312° (NW) 17:51:48 437.325
BEESAT 2 19 Jan 17:56:15 18:00:07 55° 126° (SE) 18:04:04 435.950
CUTE-I 19 Jan 17:57:32 18:02:51 79° 256° (WSW) 18:08:12 437.470
YUBILEINY 19 Jan 17:58:41 18:03:55 17° 315° (NW) 18:09:12 435.215
CANX-2 19 Jan 18:04:17 18:07:41 23° 62° (ENE) 18:11:07 2200.000
SO-50 19 Jan 18:08:35 18:11:46 19° 246° (WSW) 18:14:55 436.795
SEEDS 19 Jan 18:17:39 18:20:44 20° 61° (ENE) 18:23:50 437.485
Cosmos 2499 19 Jan 18:20:17 18:24:59 17° 74° (ENE) 18:29:32 435.465 / 435.565
BRITE-PL 19 Jan 18:24:03 18:27:11 15° 276° (W) 18:30:19 437.365/2234.400
COMPASS 1 19 Jan 18:25:15 18:27:56 17° 59° (ENE) 18:30:39 437.405
HO-68 19 Jan 18:26:58 18:33:57 56° 64° (ENE) 18:40:57 435.675
MOZHAYETS 4 19 Jan 18:29:16 18:30:09 10° 309° (NW) 18:31:01
GOMX 1 19 Jan 18:31:09 18:35:21 23° 269° (W) 18:39:26 467.674
STARS 19 Jan 18:32:07 18:36:06 35° 295° (WNW) 18:40:04 437.465
CUBEBUG 2 19 Jan 18:36:56 18:39:55 19° 61° (ENE) 18:42:55 437.445
AAUSAT CUBESAT 2 19 Jan 18:37:23 18:40:08 17° 59° (ENE) 18:42:54 437.432
NOAA 18 19 Jan 18:37:24 18:42:51 64° 257° (WSW) 18:48:20 137.9125
Cubesat XI-IV 19 Jan 18:41:05 18:46:00 37° 264° (W) 18:50:57 437.490
M-CUBED/EXP-1 PRIME 19 Jan 18:46:26 18:47:36 11° 311° (NW) 18:48:45 437.505
GONETS M04 19 Jan 18:49:21 18:55:37 23° 75° (ENE) 19:01:54
AO-85 19 Jan 18:49:29 18:51:14 12° 355° (N) 18:52:57 145.980
BEESAT 3 19 Jan 18:51:40 18:55:12 31° 324° (NW) 18:58:47 437.485
NOAA 15 19 Jan 18:53:45 18:58:18 28° 266° (W) 19:02:52 137.62
STRAND 1 19 Jan 18:56:11 19:00:00 21° 90° (E) 19:03:49 437.568
LilacSat-2 19 Jan 19:04:40 19:06:45 14° 271° (W) 19:08:52 437.200
FUNcube-1 19 Jan 19:05:57 19:08:22 15° 58° (ENE) 19:10:48 145.935
UWE-3 19 Jan 19:06:44 19:10:05 24° 63° (ENE) 19:13:27 435.000/436.395/437.385
CUTE 1.7 + AOD 2 19 Jan 19:09:52 19:14:07 81° 76° (ENE) 19:18:26 437.475
CUBESAT XI-V 19 Jan 19:10:38 19:13:55 19° 302° (WNW) 19:17:12 437.345
CINEMA 3 19 Jan 19:11:42 19:16:03 58° 259° (W) 19:20:16 145.822/145.860
DOVE 4 19 Jan 19:15:29 19:18:57 19° 270° (W) 19:22:18 437.250
ZACube-1 19 Jan 19:27:23 19:30:45 24° 63° (ENE) 19:34:09 437.345
BEESAT 2 19 Jan 19:34:41 19:38:10 28° 326° (NW) 19:41:42 435.950
CANX-2 19 Jan 19:39:12 19:43:18 46° 262° (W) 19:47:28 2200.000
CUTE-I 19 Jan 19:41:18 19:43:47 13° 275° (W) 19:46:17 437.470
AIST 2 19 Jan 19:47:22 19:50:31 21° 115° (ESE) 19:53:43 435.215
SEEDS 19 Jan 19:51:55 19:56:04 56° 260° (W) 20:00:17 437.485
COMPASS 1 19 Jan 19:58:50 20:03:01 69° 258° (WSW) 20:07:15 437.405
DELFI C3 19 Jan 20:01:43 20:04:27 18° 60° (ENE) 20:07:11 145.870
Oscar 11 19 Jan 20:04:23 20:08:31 47° 69° (ENE) 20:12:42 145.826/435.025
Cosmos 2499 19 Jan 20:08:32 20:16:50 71° 96° (E) 20:24:32 435.465 / 435.565
AAUSAT CUBESAT 2 19 Jan 20:11:00 20:15:09 66° 258° (WSW) 20:19:21 437.432
CUBEBUG 2 19 Jan 20:12:09 20:16:14 54° 260° (W) 20:20:19 437.445
HO-68 19 Jan 20:15:22 20:21:58 38° 264° (W) 20:28:36 435.675
NOAA 18 19 Jan 20:23:25 20:24:37 11° 277° (W) 20:25:50 137.9125
AO-85 19 Jan 20:30:38 20:33:16 16° 20° (NNE) 20:35:51 145.980
BEESAT 3 19 Jan 20:32:09 20:34:00 13° 347° (NNW) 20:35:51 437.485
STRAND 1 19 Jan 20:34:33 20:39:40 67° 289° (WNW) 20:44:46 437.568
FUNcube-1 19 Jan 20:39:58 20:44:05 75° 256° (WSW) 20:48:17 145.935
GONETS M04 19 Jan 20:42:27 20:51:11 86° 96° (E) 21:00:01
UWE-3 19 Jan 20:42:28 20:46:23 41° 262° (W) 20:50:20 435.000/436.395/437.385
CUTE 1.7 + AOD 2 19 Jan 20:48:35 20:50:33 13° 273° (W) 20:52:33 437.475
ZACube-1 19 Jan 21:02:57 21:06:52 41° 262° (W) 21:10:50 437.345
BEESAT 2 19 Jan 21:15:24 21:17:13 13° 349° (N) 21:19:02 435.950
HUMSAT D 19 Jan 21:20:11 21:24:12 57° 72° (ENE) 21:28:19 437.325/437.525
AIST 2 19 Jan 21:24:32 21:28:38 61° 315° (NW) 21:32:50 435.215
CUBEBUG 1 19 Jan 21:31:06 21:31:49 10° 52° (NE) 21:32:32 437.445
PRISM 19 Jan 21:31:27 21:35:15 34° 97° (E) 21:39:00 437.425
DELFI C3 19 Jan 21:34:54 21:38:52 58° 259° (W) 21:42:52 145.870
Oscar 11 19 Jan 21:41:31 21:44:54 22° 268° (W) 21:48:19 145.826/435.025
UNISAT 6 19 Jan 21:41:53 21:44:52 18° 90° (E) 21:47:52 437.425
AISAT 19 Jan 21:45:45 21:46:19 10° 51° (NE) 21:46:53 437.250
TIGRISAT 19 Jan 21:55:09 21:58:34 22° 92° (E) 22:02:01 435.000
BY70-1 19 Jan 22:00:22 22:03:15 36° 69° (ENE) 22:06:20 436.1900
ESTCUBE 1 19 Jan 22:00:56 22:04:48 28° 63° (ENE) 22:08:40 437.505/2401.250
Cosmos 2499 19 Jan 22:03:28 22:10:37 32° 297° (WNW) 22:17:23 435.465 / 435.565
ANTELSAT 19 Jan 22:09:52 22:13:48 30° 95° (E) 22:17:46 437.575/2403.000
AO-85 19 Jan 22:10:37 22:14:33 55° 44° (NE) 22:18:22 145.980
BEESAT 3 19 Jan 22:11:32 22:13:16 12° 11° (NNE) 22:15:00 437.485
STRAND 1 19 Jan 22:15:27 22:17:58 14° 309° (NW) 22:20:28 437.568
VELOX 1 19 Jan 22:16:25 22:19:23 18° 58° (ENE) 22:22:20 145.980
JAS-2 19 Jan 22:20:15 22:25:51 24° 89° (E) 22:31:47 435.910
50 SAT 19 Jan 22:23:15 22:24:31 12° 58° (ENE) 22:25:46 437.505
GONETS M04 19 Jan 22:42:02 22:49:14 28° 303° (WNW) 22:56:32
SPROUT 19 Jan 22:49:42 22:53:06 24° 62° (ENE) 22:56:31 437.525
RS-15 19 Jan 22:50:28 22:59:54 29° 101° (ESE) 23:09:32 29.354- 29.394
DX 1 19 Jan 22:50:38 22:53:44 19° 59° (ENE) 22:56:50 434.975-435.025
UKube-1 19 Jan 22:51:47 22:54:19 15° 56° (NE) 22:56:52 .
BEESAT 2 19 Jan 22:54:40 22:56:39 13° 13° (NNE) 22:58:39 435.950
HUMSAT D 19 Jan 22:57:28 23:00:12 17° 270° (W) 23:02:59 437.325/437.525
CUBEBUG 1 19 Jan 23:02:53 23:07:15 61° 71° (ENE) 23:11:36 437.445
AIST 2 19 Jan 23:04:58 23:07:56 18° 337° (NNW) 23:10:55 435.215
PRISM 19 Jan 23:06:54 23:10:28 29° 296° (WNW) 23:14:01 437.425
AISAT 19 Jan 23:17:31 23:21:54 59° 70° (ENE) 23:26:17 437.250
UNISAT 6 19 Jan 23:17:38 23:21:59 63° 288° (WNW) 23:26:25 437.425
QB50P1 19 Jan 23:18:11 23:21:03 17° 90° (E) 23:23:53 145.935-145.965
POLYITAN 1 19 Jan 23:21:59 23:25:02 19° 91° (E) 23:28:05 437.675
QB50P2 19 Jan 23:23:06 23:26:19 21° 92° (E) 23:29:31 145.880/145.840
TIGRISAT 19 Jan 23:31:16 23:35:31 51° 290° (WNW) 23:39:51 435.000
BY70-1 19 Jan 23:31:43 23:33:48 16° 269° (W) 23:35:58 436.1900
ESTCUBE 1 19 Jan 23:37:08 23:41:27 42° 262° (W) 23:45:48 437.505/2401.250
ISS 19 Jan 23:44:07 23:47:07 34° 150° (SSE) 23:50:06 145.825
POPSAT HIP 1 19 Jan 23:44:26 23:48:10 30° 95° (E) 23:51:53 437.405
ANTELSAT 19 Jan 23:46:32 23:50:33 36° 294° (WNW) 23:54:38 437.575/2403.000
BEESAT 3 19 Jan 23:48:38 23:52:07 28° 34° (NE) 23:55:37 437.485
Cosmos 2504 19 Jan 23:48:38 23:51:28 12° 42° (NE) 23:54:16 435.465 / 435.565
VELOX 1 19 Jan 23:50:54 23:55:20 73° 256° (WSW) 23:59:49 145.980
AO-85 19 Jan 23:51:37 23:54:36 21° 244° (WSW) 23:57:33 145.980
50 SAT 19 Jan 23:53:35 23:57:10 82° 257° (WSW) 00:00:47 437.505
DUCHIFAT 1 19 Jan 23:56:01 23:59:51 33° 97° (E) 00:03:39 145.980
AIST 1 19 Jan 23:59:52 00:02:30 16° 62° (ENE) 00:05:05
NANOSAT C BR1 20 Jan 00:01:07 00:05:07 41° 98° (E) 00:09:06 145.865
YUBILEINY 20 Jan 00:03:05 00:10:33 29° 58° (ENE) 00:17:57 435.215
JAS-2 20 Jan 00:04:33 00:11:32 85° 286° (WNW) 00:19:13 435.910
TISAT 1 20 Jan 00:19:30 00:23:10 31° 65° (ENE) 00:26:52 437.305
PCSat 20 Jan 00:21:42 00:25:18 18° 106° (ESE) 00:28:54 145.827
SPROUT 20 Jan 00:24:43 00:28:48 45° 261° (W) 00:32:54 437.525
DX 1 20 Jan 00:25:10 00:29:31 63° 258° (WSW) 00:33:53 434.975-435.025
UKube-1 20 Jan 00:25:27 00:29:48 82° 256° (WSW) 00:34:09 .
BEESAT 2 20 Jan 00:31:57 00:35:38 32° 36° (NE) 00:39:17 435.950
BUGSAT 1 20 Jan 00:33:15 00:36:50 30° 96° (E) 00:40:26 437.445
CUBEBUG 1 20 Jan 00:40:54 00:43:55 18° 270° (W) 00:46:57 437.445
BEESAT 20 Jan 00:43:09 00:46:12 17° 55° (NE) 00:49:15 436.000
SWISSCUBE 20 Jan 00:44:24 00:47:42 19° 57° (ENE) 00:51:01 437.505
AIST 2 20 Jan 00:46:10 00:48:00 12° 1° (N) 00:49:50 435.215
QB50P1 20 Jan 00:53:02 00:57:11 58° 289° (WNW) 01:01:20 145.935-145.965
AISAT 20 Jan 00:55:35 00:58:44 19° 269° (W) 01:01:54 437.250
UNISAT 6 20 Jan 00:56:57 00:57:53 11° 307° (NW) 00:58:49 437.425
POLYITAN 1 20 Jan 00:57:02 01:01:09 53° 290° (WNW) 01:05:17 437.675
QB50P2 20 Jan 00:58:17 01:02:22 49° 290° (WNW) 01:06:28 145.880/145.840
RS-15 20 Jan 00:58:38 01:10:38 83° 127° (SE) 01:23:04 29.354- 29.394
Cosmos 2491 20 Jan 01:00:44 01:06:57 23° 75° (ENE) 01:13:11 435.465 / 435.565
Oscar 19 20 Jan 01:02:16 01:06:10 21° 90° (E) 01:10:01 437.125/150
Gurwin Techsat 1B 20 Jan 01:12:19 01:15:19 15° 86° (E) 01:18:20 435.225
ISS 20 Jan 01:20:09 01:23:25 87° 348° (NNW) 01:26:41 145.825
POPSAT HIP 1 20 Jan 01:20:10 01:23:59 34° 294° (WNW) 01:27:47 437.405
BEESAT 3 20 Jan 01:26:04 01:30:00 55° 235° (SW) 01:33:54 437.485
DUCHIFAT 1 20 Jan 01:31:48 01:35:28 30° 295° (WNW) 01:39:08 145.980
AIST 1 20 Jan 01:36:20 01:40:37 69° 263° (W) 01:44:51
NANOSAT C BR1 20 Jan 01:37:12 01:40:40 25° 297° (WNW) 01:44:08 145.865
Cosmos 2504 20 Jan 01:40:02 01:47:18 47° 70° (ENE) 01:54:12 435.465 / 435.565
ITUPSAT 1 20 Jan 01:43:48 01:48:23 48° 68° (ENE) 01:53:00 437.325
JAS-2 20 Jan 01:50:34 01:55:50 24° 306° (NW) 02:01:30 435.910
TISAT 1 20 Jan 01:55:02 01:58:47 32° 264° (W) 02:02:34 437.305
YUBILEINY 20 Jan 01:59:38 02:08:31 84° 263° (W) 02:17:18 435.215
PCSat 20 Jan 02:02:34 02:07:59 89° 306° (NW) 02:13:28 145.827
UKube-1 20 Jan 02:05:33 02:06:33 11° 274° (W) 02:07:32 .
BUGSAT 1 20 Jan 02:08:39 02:12:12 30° 294° (WNW) 02:15:45 437.445
BEESAT 2 20 Jan 02:09:40 02:13:34 46° 236° (WSW) 02:17:26 435.950
BEESAT 20 Jan 02:18:36 02:23:23 85° 256° (WSW) 02:28:11 436.000
MOZHAYETS 4 20 Jan 02:19:18 02:23:25 34° 65° (ENE) 02:27:36
SWISSCUBE 20 Jan 02:20:13 02:24:58 75° 256° (WSW) 02:29:47 437.505
AIST 2 20 Jan 02:24:50 02:28:01 20° 25° (NNE) 02:31:13 435.215
M-CUBED/EXP-1 PRIME 20 Jan 02:26:18 02:30:06 32° 61° (ENE) 02:33:40 437.505
Oscar 19 20 Jan 02:40:49 02:45:59 66° 289° (WNW) 02:51:05 437.125/150
CUSAT 1 20 Jan 02:48:45 02:53:26 29° 83° (E) 02:59:06 437.405
Gurwin Techsat 1B 20 Jan 02:50:42 02:56:04 87° 106° (ESE) 03:01:24 435.225
Cosmos 2491 20 Jan 02:53:49 03:02:33 86° 96° (E) 03:11:20 435.465 / 435.565
ISS 20 Jan 02:56:43 02:59:59 86° 4° (N) 03:03:15 145.825
KKS-1 20 Jan 03:02:45 03:06:43 33° 65° (ENE) 03:10:42 437.445
AUBIESAT-1 20 Jan 03:03:01 03:07:08 57° 66° (ENE) 03:11:00 437.475
CUBESAT XI-V 20 Jan 03:04:39 03:08:01 20° 58° (ENE) 03:11:24 437.345
RS-15 20 Jan 03:12:36 03:24:25 51° 336° (NNW) 03:36:27 29.354- 29.394
ITUPSAT 1 20 Jan 03:22:31 03:26:27 25° 267° (W) 03:30:26 437.325
ITAMSAT 1 20 Jan 03:22:33 03:27:28 40° 98° (E) 03:32:22 435.822/435.867
Cosmos 2504 20 Jan 03:33:43 03:40:36 41° 273° (W) 03:47:12 435.465 / 435.565
DANDE 20 Jan 03:36:05 03:38:55 17° 78° (ENE) 03:42:14 436.750
PCSat 20 Jan 03:47:35 03:52:07 26° 329° (NNW) 03:56:41 145.827
AO-7 20 Jan 03:50:36 03:58:39 47° 100° (E) 04:06:36 29.400- 29.500
MOZHAYETS 4 20 Jan 03:56:26 04:00:35 34° 264° (W) 04:04:48
STARS 20 Jan 03:56:53 04:01:07 51° 69° (ENE) 04:05:23 437.465
YUBILEINY 20 Jan 03:57:48 04:04:00 22° 286° (WNW) 04:10:11 435.215
BEESAT 20 Jan 03:59:51 04:01:55 13° 274° (W) 04:04:00 436.000
M-CUBED/EXP-1 PRIME 20 Jan 04:00:36 04:04:33 34° 257° (WSW) 04:08:14 437.505
SWISSCUBE 20 Jan 04:02:19 04:03:37 11° 275° (W) 04:04:55 437.505
AIST 2 20 Jan 04:02:57 04:07:12 73° 46° (NE) 04:11:26 435.215
Oscar 19 20 Jan 04:21:51 04:24:23 14° 310° (NW) 04:26:54 437.125/150
CUSAT 1 20 Jan 04:29:21 04:34:46 59° 290° (WNW) 04:41:43 437.405
Gurwin Techsat 1B 20 Jan 04:31:43 04:35:22 19° 306° (NW) 04:39:01 435.225
ISS 20 Jan 04:33:18 04:36:18 34° 209° (SSW) 04:39:17 145.825
AUBIESAT-1 20 Jan 04:38:52 04:41:48 18° 261° (W) 04:44:37 437.475
KKS-1 20 Jan 04:39:13 04:43:16 34° 263° (W) 04:47:21 437.445
CUBESAT XI-V 20 Jan 04:40:14 04:44:55 69° 258° (WSW) 04:49:39 437.345
STRAND 1 20 Jan 04:43:07 04:43:28 10° 46° (NE) 04:43:50 437.568
BRITE-PL 20 Jan 04:43:07 04:47:13 25° 90° (E) 04:51:02 437.365/2234.400
GONETS M04 20 Jan 04:50:29 04:55:56 17° 46° (NE) 05:01:23
GOMX 1 20 Jan 04:51:07 04:52:22 11° 83° (E) 04:53:37 467.674
Cosmos 2491 20 Jan 04:53:24 05:00:36 28° 303° (WNW) 05:07:52 435.465 / 435.565
ITAMSAT 1 20 Jan 05:02:11 05:06:54 36° 297° (WNW) 05:11:37 435.822/435.867
DANDE 20 Jan 05:16:32 05:20:38 65° 287° (WNW) 05:26:15 436.750
NOAA 15 20 Jan 05:24:54 05:27:10 13° 85° (E) 05:29:26 137.62
RS-15 20 Jan 05:28:32 05:40:13 44° 9° (N) 05:51:49 29.354- 29.394
DOVE 4 20 Jan 05:32:21 05:33:13 11° 85° (E) 05:34:05 437.250
PCSat 20 Jan 05:34:24 05:37:26 15° 354° (N) 05:40:28 145.827
STARS 20 Jan 05:34:25 05:37:45 21° 268° (W) 05:41:07 437.465
HORYU 2 20 Jan 05:34:30 05:38:29 31° 96° (E) 05:42:26 437.375
AIST 2 20 Jan 05:42:18 05:45:14 18° 246° (WSW) 05:48:09 435.215
AO-7 20 Jan 05:43:31 05:51:33 53° 302° (WNW) 05:59:33 29.400- 29.500
Cosmos 2499 20 Jan 05:54:06 06:00:34 33° 64° (ENE) 06:06:49 435.465 / 435.565
O/OREOS (USA 219) 20 Jan 05:59:10 06:02:00 17° 101° (E) 06:04:52 437.305
CUTE-I 20 Jan 06:09:39 06:14:16 28° 94° (E) 06:18:50 437.470
CUSAT 1 20 Jan 06:14:58 06:18:35 16° 315° (NW) 06:22:39 437.405
STRAND 1 20 Jan 06:16:38 06:21:30 48° 67° (ENE) 06:26:25 437.568
BRITE-PL 20 Jan 06:21:07 06:26:03 50° 292° (WNW) 06:30:34 437.365/2234.400
GOMX 1 20 Jan 06:26:45 06:31:21 86° 104° (ESE) 06:35:38 467.674
LilacSat-2 20 Jan 06:30:42 06:34:26 44° 98° (E) 06:38:10 437.200
GONETS M04 20 Jan 06:46:23 06:55:07 58° 72° (ENE) 07:03:49
CUTE 1.7 + AOD 2 20 Jan 06:52:15 06:53:08 10° 85° (E) 06:54:00 437.475
Cubesat XI-IV 20 Jan 06:52:24 06:57:42 60° 102° (ESE) 07:02:59 437.490
NOAA 18 20 Jan 06:54:17 06:59:20 36° 97° (E) 07:04:20 137.9125
CINEMA 3 20 Jan 07:01:23 07:04:36 21° 92° (E) 07:07:50 145.822/145.860
NOAA 15 20 Jan 07:02:31 07:07:53 75° 104° (ESE) 07:13:11 137.62
DANDE 20 Jan 07:02:59 07:05:04 12° 315° (NW) 07:07:22 436.750
DOVE 4 20 Jan 07:07:25 07:11:42 89° 104° (ESE) 07:15:51 437.250
HORYU 2 20 Jan 07:10:59 07:15:04 36° 294° (WNW) 07:19:08 437.375
PCSat 20 Jan 07:19:11 07:23:01 19° 21° (NNE) 07:26:51 145.827
CANX-2 20 Jan 07:19:22 07:22:47 22° 92° (E) 07:26:10 2200.000
